Location: Leipzig
(51.3392°N, 12.3528°E)
Time: 10:33:41
(UTC+01:00)

Amateur Radio Satellites - All Passes

Search period start: 23 November 2017 10:03
Search period end: 24 November 2017 10:03
Location: Leipzig, 51.3392°N, 12.3528°E

Satellite Date Start Highest point End Downlink Frequencies (MHz)
Time Altitude Azimuth
BEESAT 2 23 Nov 10:06:26 10:10:06 30° 35° (NE) 10:13:41 435.950
PRISM 23 Nov 10:07:49 10:11:50 49° 260° (W) 10:15:54 437.425
ZACube-1 23 Nov 10:17:01 10:19:08 14° 303° (WNW) 10:21:15 437.345
BEESAT 3 23 Nov 10:27:27 10:31:27 83° 230° (SW) 10:35:22 437.485
AO-85 23 Nov 10:32:46 10:36:44 30° 33° (NNE) 10:40:58 145.980
DELFI C3 23 Nov 10:34:13 10:38:02 44° 291° (WNW) 10:41:50 145.870
DUCHIFAT 1 23 Nov 10:34:32 10:38:20 34° 66° (ENE) 10:42:09 145.980
AO-91 23 Nov 10:41:17 10:43:13 12° 50° (NE) 10:45:07 145.960
PCSat 23 Nov 10:42:37 10:44:16 11° 258° (WSW) 10:45:55 145.827
EO-79 23 Nov 10:44:09 10:48:16 52° 70° (ENE) 10:52:24 145.935-145.965
NANOSAT C BR1 23 Nov 10:46:00 10:50:04 49° 70° (ENE) 10:54:09 145.865
POLYITAN 1 23 Nov 10:59:57 11:04:11 74° 73° (ENE) 11:08:25 437.675
AIST 2D 23 Nov 11:03:45 11:06:55 33° 263° (W) 11:10:08 435.315
EO-88 23 Nov 11:07:16 11:10:36 34° 292° (WNW) 11:13:56 145.990 - 145.960
ESTCUBE 1 23 Nov 11:14:07 11:18:16 34° 96° (E) 11:22:24 437.505/2401.250
Max Valier Satellite 23 Nov 11:14:14 11:17:08 22° 296° (WNW) 11:20:02 145.860
BUGSAT 1 23 Nov 11:18:58 11:22:31 28° 64° (ENE) 11:26:03 437.445
QB50P2 23 Nov 11:23:32 11:27:44 60° 259° (W) 11:31:57 145.880/145.840
LO-87 23 Nov 11:24:35 11:28:05 56° 101° (E) 11:31:34 145.935 - 145.965
Oscar 19 23 Nov 11:25:40 11:29:47 25° 58° (ENE) 11:33:54 437.125/150
AO-7 23 Nov 11:36:10 11:41:14 18° 32° (NNE) 11:46:18 .
BEESAT 2 23 Nov 11:44:04 11:48:01 50° 235° (SW) 11:51:53 435.950
SPROUT 23 Nov 12:06:10 12:09:56 29° 95° (E) 12:13:39 437.525
BEESAT 3 23 Nov 12:06:48 12:08:18 12° 249° (WSW) 12:09:47 437.485
Gurwin Techsat 1B 23 Nov 12:07:05 12:11:59 39° 64° (ENE) 12:16:54 435.225
DUCHIFAT 1 23 Nov 12:10:19 12:14:01 30° 265° (W) 12:17:45 145.980
AO-85 23 Nov 12:12:56 12:17:30 68° 232° (SW) 12:22:25 145.980
AO-91 23 Nov 12:13:22 12:18:36 52° 69° (ENE) 12:23:45 145.960
M-CUBED/EXP-1 PRIME 23 Nov 12:16:59 12:19:36 18° 51° (NE) 12:22:20 437.505
EO-79 23 Nov 12:21:12 12:24:20 20° 269° (W) 12:27:27 145.935-145.965
NANOSAT C BR1 23 Nov 12:22:49 12:26:02 21° 268° (W) 12:29:16 145.865
POLYITAN 1 23 Nov 12:38:10 12:40:28 14° 272° (W) 12:42:46 437.675
ESTCUBE 1 23 Nov 12:50:58 12:55:04 34° 295° (WNW) 12:59:09 437.505/2401.250
BUGSAT 1 23 Nov 12:53:53 12:57:46 37° 262° (W) 13:01:38 437.445
O/OREOS (USA 219) 23 Nov 12:57:05 13:01:23 40° 109° (ESE) 13:05:41 437.305
LO-87 23 Nov 12:59:01 13:01:06 15° 300° (WNW) 13:03:09 145.935 - 145.965
VELOX 1 23 Nov 13:01:17 13:05:44 65° 102° (ESE) 13:10:09 145.980
Oscar 19 23 Nov 13:03:41 13:08:44 61° 258° (WSW) 13:13:51 437.125/150
YUBILEINY 23 Nov 13:07:28 13:09:08 11° 32° (NNE) 13:10:48 435.215
ITAMSAT 1 23 Nov 13:23:13 13:27:06 21° 55° (NE) 13:30:59 435.822/435.867
AO-7 23 Nov 13:24:19 13:32:08 49° 56° (ENE) 13:40:01 .
DX 1 23 Nov 13:39:49 13:43:58 40° 98° (E) 13:48:05 434.975-435.025
SPROUT 23 Nov 13:41:58 13:45:51 35° 294° (WNW) 13:49:42 437.525
Gurwin Techsat 1B 23 Nov 13:46:59 13:51:56 39° 263° (W) 13:56:56 435.225
M-CUBED/EXP-1 PRIME 23 Nov 13:49:50 13:53:30 65° 252° (WSW) 13:57:32 437.505
AO-91 23 Nov 13:50:31 13:55:14 30° 268° (W) 13:59:53 145.960
NO-84 23 Nov 13:50:35 13:51:42 11° 126° (SE) 13:52:50 435.350 FM
AO-85 23 Nov 13:55:15 13:57:14 12° 250° (WSW) 13:59:16 145.980
50 SAT 23 Nov 14:06:07 14:09:23 88° 286° (WNW) 14:12:35 437.505
UKube-1 23 Nov 14:17:02 14:21:20 59° 102° (ESE) 14:25:36 .
BEESAT 23 Nov 14:28:19 14:31:03 15° 88° (E) 14:33:47 436.000
MOZHAYETS 4 23 Nov 14:30:01 14:33:24 20° 91° (E) 14:36:45
O/OREOS (USA 219) 23 Nov 14:36:41 14:40:52 33° 309° (NW) 14:45:05 437.305
VELOX 1 23 Nov 14:38:33 14:41:45 20° 302° (WNW) 14:44:58 145.980
ITUPSAT 1 23 Nov 14:39:10 14:42:28 18° 90° (E) 14:45:45 437.325
DOVE 4 23 Nov 14:44:27 14:48:12 20° 56° (ENE) 14:52:00 437.250
ITAMSAT 1 23 Nov 15:00:47 15:06:02 77° 255° (WSW) 15:11:18 435.822/435.867
YUBILEINY 23 Nov 15:01:40 15:09:36 35° 61° (ENE) 15:17:28 435.215
HO-68 23 Nov 15:02:09 15:03:41 11° 30° (NNE) 15:05:12 435.675
CUTE-I 23 Nov 15:14:32 15:15:59 11° 45° (NE) 15:17:26 437.470
DX 1 23 Nov 15:16:15 15:20:01 28° 297° (WNW) 15:23:46 434.975-435.025
AO-7 23 Nov 15:16:54 15:24:55 52° 258° (WSW) 15:33:01 .
NO-84 23 Nov 15:24:32 15:28:11 52° 146° (SE) 15:32:08 435.350 FM
UKube-1 23 Nov 15:53:47 15:56:59 20° 301° (WNW) 16:00:10 .
BEESAT 23 Nov 16:04:40 16:09:28 83° 288° (WNW) 16:14:12 436.000
XW-2D 23 Nov 16:06:04 16:08:35 17° 61° (ENE) 16:11:08 145.860 - 145.880
MOZHAYETS 4 23 Nov 16:06:25 16:10:56 59° 289° (WNW) 16:15:25
KKS-1 23 Nov 16:06:59 16:07:59 11° 85° (E) 16:08:59 437.445
ITUPSAT 1 23 Nov 16:16:02 16:20:47 69° 289° (WNW) 16:25:30 437.325
DOVE 4 23 Nov 16:20:05 16:25:14 82° 256° (WSW) 16:30:35 437.250
XW-2B 23 Nov 16:20:27 16:23:25 23° 64° (ENE) 16:26:24 145.730 - 145.750
CUBESAT XI-V 23 Nov 16:23:57 16:28:37 59° 101° (E) 16:33:15 437.345
NUDT-PHONESAT 23 Nov 16:25:24 16:27:59 18° 62° (ENE) 16:30:34 437.300
RS-15 23 Nov 16:31:00 16:38:20 18° 94° (E) 16:45:37 29.354- 29.394
HO-68 23 Nov 16:43:05 16:49:18 33° 54° (NE) 16:55:33 435.675
ITAMSAT 1 23 Nov 16:44:00 16:46:23 13° 275° (W) 16:48:47 435.822/435.867
XW-2C 23 Nov 16:45:31 16:49:02 40° 69° (ENE) 16:52:35 145.795 - 145.815
CUTE-I 23 Nov 16:49:42 16:54:49 48° 66° (ENE) 17:00:00 437.470
LilacSat-2 23 Nov 16:50:24 16:54:01 48° 71° (ENE) 16:57:42 437.200
XW-2F 23 Nov 16:53:54 16:57:27 45° 70° (ENE) 17:01:03 145.980 - 146.000
YUBILEINY 23 Nov 16:58:24 17:07:12 71° 266° (W) 17:15:58 435.215
NO-84 23 Nov 17:01:41 17:05:34 58° 347° (NNW) 17:09:41 435.350 FM
KAITUO 1B 23 Nov 17:17:27 17:21:06 65° 73° (ENE) 17:24:48 145.475/437.950
AO-7 23 Nov 17:17:30 17:19:49 11° 281° (W) 17:22:09 .
CUBEBUG 2 23 Nov 17:28:05 17:31:37 23° 62° (ENE) 17:35:05 437.445
XW-2D 23 Nov 17:38:46 17:42:25 52° 260° (W) 17:46:07 145.860 - 145.880
KKS-1 23 Nov 17:40:50 17:45:19 78° 104° (ESE) 17:49:46 437.445
CUTE 1.7 + AOD 2 23 Nov 17:42:08 17:46:07 43° 69° (ENE) 17:50:09 437.475
BEESAT 23 Nov 17:43:49 17:46:32 15° 307° (NW) 17:49:15 436.000
MOZHAYETS 4 23 Nov 17:46:10 17:47:10 11° 309° (NW) 17:48:10
XW-2B 23 Nov 17:53:55 17:57:25 37° 263° (W) 18:00:57 145.730 - 145.750
ITUPSAT 1 23 Nov 17:55:38 17:57:46 13° 309° (NW) 17:59:55 437.325
NUDT-PHONESAT 23 Nov 17:58:01 18:01:32 45° 261° (W) 18:05:05 437.300
STARS 23 Nov 17:58:09 18:02:27 50° 100° (E) 18:06:42 437.465
DOVE 4 23 Nov 18:01:00 18:03:46 14° 276° (W) 18:06:33 437.250
CUBESAT XI-V 23 Nov 18:02:00 18:05:38 23° 300° (WNW) 18:09:15 437.345
ZACube-1 23 Nov 18:05:15 18:08:07 18° 60° (ENE) 18:10:56 437.345
AAUSAT CUBESAT 2 23 Nov 18:07:44 18:11:07 25° 64° (ENE) 18:14:33 437.432
SEEDS 23 Nov 18:07:44 18:11:46 49° 70° (ENE) 18:15:51 437.485
STRAND 1 23 Nov 18:18:26 18:20:47 13° 85° (E) 18:23:08 437.568
UWE-3 23 Nov 18:19:05 18:23:09 38° 68° (ENE) 18:27:08 435.000/436.395/437.385
XW-2C 23 Nov 18:20:33 18:23:23 20° 268° (W) 18:26:15 145.795 - 145.815
LilacSat-2 23 Nov 18:26:01 18:28:34 17° 269° (W) 18:31:09 437.200
XW-2F 23 Nov 18:29:13 18:31:49 18° 269° (W) 18:34:26 145.980 - 146.000
HO-68 23 Nov 18:29:24 18:36:35 71° 255° (WSW) 18:43:49 435.675
CUTE-I 23 Nov 18:30:21 18:35:05 31° 266° (W) 18:39:51 437.470
RS-15 23 Nov 18:36:12 18:48:13 63° 119° (ESE) 19:00:07 29.354- 29.394
NO-84 23 Nov 18:39:21 18:43:21 53° 8° (N) 18:47:31 435.350 FM
XW-2A 23 Nov 18:41:43 18:44:58 53° 72° (ENE) 18:48:14 145.665 - 145.685
AO-73 23 Nov 18:53:19 18:57:18 40° 68° (ENE) 19:01:14 145.935
KAITUO 1B 23 Nov 18:53:49 18:55:31 13° 272° (W) 18:57:13 145.475/437.950
YUBILEINY 23 Nov 18:56:56 19:02:22 18° 289° (WNW) 19:07:49 435.215
CUBEBUG 2 23 Nov 19:03:34 19:07:59 51° 260° (W) 19:12:17 437.445
Oscar 11 23 Nov 19:06:51 19:10:51 39° 68° (ENE) 19:14:53 .
FO-29 23 Nov 19:14:45 19:20:14 20° 82° (E) 19:25:31 435.910
KKS-1 23 Nov 19:18:26 19:21:21 17° 304° (WNW) 19:24:14 437.445
CUTE 1.7 + AOD 2 23 Nov 19:18:46 19:22:09 23° 268° (W) 19:25:34 437.475
STARS 23 Nov 19:35:01 19:38:31 23° 299° (WNW) 19:41:59 437.465
ZACube-1 23 Nov 19:39:43 19:43:59 65° 259° (WSW) 19:48:11 437.345
AAUSAT CUBESAT 2 23 Nov 19:42:29 19:46:24 41° 262° (W) 19:50:22 437.432
SEEDS 23 Nov 19:44:35 19:47:43 20° 269° (W) 19:50:54 437.485
DELFI C3 23 Nov 19:49:55 19:53:12 25° 64° (ENE) 19:56:30 145.870
STRAND 1 23 Nov 19:55:40 20:00:50 80° 105° (ESE) 20:05:56 437.568
UWE-3 23 Nov 19:55:56 19:59:42 27° 266° (W) 20:03:25 435.000/436.395/437.385
nSIGHT-1 23 Nov 20:09:22 20:11:40 18° 143° (SE) 20:13:58 .
EO-88 23 Nov 20:16:24 20:19:17 22° 64° (ENE) 20:22:10 145.990 - 145.960
XW-2A 23 Nov 20:16:29 20:18:00 12° 271° (W) 20:19:31 145.665 - 145.685
NO-84 23 Nov 20:16:44 20:20:55 76° 208° (SSW) 20:25:11 435.350 FM
HO-68 23 Nov 20:21:30 20:25:39 16° 277° (W) 20:29:49 435.675
Max Valier Satellite 23 Nov 20:23:30 20:26:51 35° 68° (ENE) 20:30:13 145.860
AO-73 23 Nov 20:30:11 20:33:41 25° 267° (W) 20:37:10 145.935
Oscar 11 23 Nov 20:43:28 20:47:06 27° 266° (W) 20:50:47 .
ESTCUBE 1 23 Nov 20:46:13 20:46:50 10° 50° (NE) 20:47:26 437.505/2401.250
RS-15 23 Nov 20:48:48 21:01:03 62° 326° (NW) 21:13:02 29.354- 29.394
FO-29 23 Nov 20:58:34 21:06:31 78° 103° (ESE) 21:14:01 435.910
ISS 23 Nov 21:00:51 21:03:50 33° 151° (SSE) 21:06:50 437.550
SO-50 23 Nov 21:15:57 21:20:01 35° 121° (ESE) 21:24:09 436.795
O/OREOS (USA 219) 23 Nov 21:22:35 21:26:42 31° 50° (NE) 21:30:44 437.305
DELFI C3 23 Nov 21:24:04 21:27:47 38° 263° (W) 21:31:33 145.870
UNISAT 6 23 Nov 21:32:36 21:36:29 32° 96° (E) 21:40:19 437.425
STRAND 1 23 Nov 21:35:47 21:39:27 20° 305° (NW) 21:43:06 437.568
TIGRISAT 23 Nov 21:36:13 21:40:06 32° 96° (E) 21:43:54 435.000
nSIGHT-1 23 Nov 21:44:17 21:47:28 64° 162° (SSE) 21:50:39 .
PRISM 23 Nov 21:44:31 21:47:09 16° 90° (E) 21:49:46 437.425
EO-88 23 Nov 21:49:25 21:52:45 35° 263° (W) 21:56:08 145.990 - 145.960
NO-84 23 Nov 21:54:39 21:57:49 20° 227° (SW) 22:00:58 435.350 FM
Max Valier Satellite 23 Nov 21:57:53 22:00:47 22° 267° (W) 22:03:41 145.860
LO-87 23 Nov 22:04:57 22:08:26 50° 72° (ENE) 22:11:57 145.935 - 145.965
ESTCUBE 1 23 Nov 22:18:18 22:22:42 57° 70° (ENE) 22:27:08 437.505/2401.250
AIST 2D 23 Nov 22:24:10 22:25:51 13° 89° (E) 22:27:31 435.315
VELOX 1 23 Nov 22:28:47 22:31:41 17° 57° (ENE) 22:34:36 145.980
ISS 23 Nov 22:36:50 22:40:07 88° 168° (SSE) 22:43:25 437.550
FO-29 23 Nov 22:44:07 22:50:53 33° 305° (NW) 22:57:24 435.910
SO-50 23 Nov 22:56:06 23:00:25 45° 321° (NW) 23:04:48 436.795
O/OREOS (USA 219) 23 Nov 23:01:55 23:06:14 43° 250° (WSW) 23:10:30 437.305
SPROUT 23 Nov 23:03:57 23:08:00 44° 68° (ENE) 23:12:05 437.525
QB50P2 23 Nov 23:03:59 23:06:33 16° 89° (E) 23:09:07 145.880/145.840
RS-15 23 Nov 23:04:44 23:16:17 43° 358° (N) 23:27:26 29.354- 29.394
DX 1 23 Nov 23:07:20 23:08:52 12° 52° (NE) 23:10:23 434.975-435.025
UNISAT 6 23 Nov 23:09:22 23:13:12 32° 295° (WNW) 23:16:58 437.425
TIGRISAT 23 Nov 23:12:58 23:16:46 32° 295° (WNW) 23:20:32 435.000
PRISM 23 Nov 23:18:41 23:22:50 64° 289° (WNW) 23:26:57 437.425
nSIGHT-1 23 Nov 23:20:28 23:23:42 83° 4° (N) 23:26:55 .
LO-87 23 Nov 23:39:55 23:42:08 15° 270° (W) 23:44:20 145.935 - 145.965
UKube-1 23 Nov 23:42:26 23:44:58 15° 56° (NE) 23:47:31 .
PCSat 23 Nov 23:43:12 23:48:14 41° 116° (ESE) 23:53:18 145.827
DUCHIFAT 1 23 Nov 23:48:24 23:52:04 29° 95° (E) 23:55:42 145.980
AIST 2D 23 Nov 23:55:54 23:59:23 59° 287° (WNW) 00:02:51 435.315
ESTCUBE 1 23 Nov 23:56:34 23:59:51 20° 269° (W) 00:03:11 437.505/2401.250
EO-79 23 Nov 23:58:57 00:03:01 46° 99° (E) 00:07:03 145.935-145.965
NANOSAT C BR1 24 Nov 00:00:21 00:04:22 42° 98° (E) 00:08:21 145.865
VELOX 1 24 Nov 00:03:09 00:07:36 77° 257° (WSW) 00:12:06 145.980
ISS 24 Nov 00:13:21 00:16:39 86° 184° (S) 00:19:55 437.550
POLYITAN 1 24 Nov 00:15:00 00:19:11 66° 102° (ESE) 00:23:21 437.675
BUGSAT 1 24 Nov 00:30:25 00:33:32 21° 92° (E) 00:36:36 437.445
FO-29 24 Nov 00:31:32 00:33:35 11° 328° (NNW) 00:35:39 435.910
50 SAT 24 Nov 00:37:28 00:40:41 66° 73° (ENE) 00:43:55 437.505
QB50P2 24 Nov 00:38:36 00:42:48 66° 288° (WNW) 00:46:57 145.880/145.840
SO-50 24 Nov 00:38:46 00:41:57 18° 345° (NNW) 00:45:10 436.795
DX 1 24 Nov 00:39:54 00:44:14 68° 71° (ENE) 00:48:38 434.975-435.025
SPROUT 24 Nov 00:40:35 00:44:05 24° 267° (W) 00:47:35 437.525
PRISM 24 Nov 00:56:42 00:57:17 10° 308° (NW) 00:57:52 437.425
nSIGHT-1 24 Nov 00:56:43 00:59:53 53° 201° (SSW) 01:03:00 .
Oscar 19 24 Nov 01:09:53 01:14:30 32° 95° (E) 01:19:05 437.125/150
UKube-1 24 Nov 01:16:04 01:20:24 84° 256° (WSW) 01:24:47 .
RS-15 24 Nov 01:19:39 01:31:39 58° 31° (NNE) 01:42:58 29.354- 29.394
DUCHIFAT 1 24 Nov 01:23:58 01:27:46 34° 294° (WNW) 01:31:31 145.980
PCSat 24 Nov 01:26:24 01:31:38 46° 317° (NW) 01:36:53 145.827
AO-91 24 Nov 01:35:10 01:39:43 49° 98° (E) 01:43:45 145.960
EO-79 24 Nov 01:35:13 01:38:32 23° 298° (WNW) 01:41:52 145.935-145.965
NANOSAT C BR1 24 Nov 01:36:28 01:39:53 25° 297° (WNW) 01:43:16 145.865
MOZHAYETS 4 24 Nov 01:36:31 01:40:38 35° 66° (ENE) 01:44:47
BEESAT 24 Nov 01:39:01 01:43:14 32° 63° (ENE) 01:47:28 436.000
VELOX 1 24 Nov 01:43:57 01:44:49 10° 275° (W) 01:45:43 145.980
ISS 24 Nov 01:49:57 01:52:54 31° 210° (SSW) 01:55:51 437.550
ITUPSAT 1 24 Nov 01:50:24 01:54:48 39° 65° (ENE) 01:59:15 437.325
POLYITAN 1 24 Nov 01:51:44 01:54:31 17° 301° (WNW) 01:57:18 437.675
CUBESAT XI-V 24 Nov 01:56:56 01:59:55 17° 56° (ENE) 02:02:54 437.345
Gurwin Techsat 1B 24 Nov 01:57:10 02:02:26 57° 101° (E) 02:07:39 435.225
BEESAT 3 24 Nov 01:58:39 02:02:05 28° 119° (ESE) 02:05:33 437.485
BUGSAT 1 24 Nov 02:05:14 02:09:07 44° 291° (WNW) 02:12:56 437.445
QB50P2 24 Nov 02:16:52 02:17:46 11° 307° (NW) 02:18:40 145.880/145.840
DX 1 24 Nov 02:18:05 02:20:53 17° 270° (W) 02:23:42 434.975-435.025
SO-50 24 Nov 02:21:05 02:24:04 17° 10° (N) 02:27:03 436.795
nSIGHT-1 24 Nov 02:33:48 02:35:34 14° 220° (SW) 02:37:21 .
Oscar 19 24 Nov 02:49:04 02:53:57 45° 294° (WNW) 02:58:52 437.125/150
UKube-1 24 Nov 02:55:49 02:57:07 11° 274° (W) 02:58:26 .
M-CUBED/EXP-1 PRIME 24 Nov 02:56:31 03:00:50 41° 104° (ESE) 03:05:14 437.505
KKS-1 24 Nov 03:08:34 03:11:55 21° 59° (ENE) 03:15:16 437.445
ITAMSAT 1 24 Nov 03:08:43 03:13:01 25° 92° (E) 03:17:16 435.822/435.867
AO-7 24 Nov 03:12:01 03:19:49 41° 98° (E) 03:27:35 .
AO-91 24 Nov 03:12:04 03:15:50 24° 300° (WNW) 03:19:17 145.960
PCSat 24 Nov 03:12:34 03:16:22 19° 341° (NNW) 03:20:10 145.827
MOZHAYETS 4 24 Nov 03:13:40 03:17:48 33° 264° (W) 03:21:58
BEESAT 24 Nov 03:16:26 03:20:55 40° 262° (W) 03:25:25 436.000
BEESAT 2 24 Nov 03:16:28 03:20:22 49° 124° (SE) 03:24:18 435.950
STARS 24 Nov 03:25:39 03:28:03 14° 54° (NE) 03:30:26 437.465
ITUPSAT 1 24 Nov 03:28:24 03:32:42 33° 264° (W) 03:37:01 437.325
CUBESAT XI-V 24 Nov 03:32:06 03:36:42 81° 257° (WSW) 03:41:22 437.345
RS-15 24 Nov 03:32:49 03:44:35 66° 239° (WSW) 03:55:41 29.354- 29.394
BEESAT 3 24 Nov 03:35:37 03:39:29 46° 319° (NW) 03:43:22 437.485
Gurwin Techsat 1B 24 Nov 03:37:37 03:42:05 28° 301° (WNW) 03:46:33 435.225
SO-50 24 Nov 04:01:36 04:05:48 34° 33° (NNE) 04:10:03 436.795
YUBILEINY 24 Nov 04:10:37 04:17:53 31° 80° (E) 04:25:12 435.215
AO-85 24 Nov 04:12:15 04:16:08 63° 127° (SE) 04:20:15 145.980
DOVE 4 24 Nov 04:14:27 04:18:27 22° 88° (E) 04:22:19 437.250
M-CUBED/EXP-1 PRIME 24 Nov 04:31:04 04:35:06 33° 301° (WNW) 04:39:13 437.505
KKS-1 24 Nov 04:43:40 04:48:05 61° 258° (WSW) 04:52:34 437.445
ITAMSAT 1 24 Nov 04:47:42 04:52:50 57° 292° (WNW) 04:57:55 435.822/435.867
BEESAT 2 24 Nov 04:54:36 04:58:15 31° 325° (NW) 05:01:56 435.950
PCSat 24 Nov 04:58:38 05:01:54 16° 8° (N) 05:05:10 145.827
STARS 24 Nov 04:59:17 05:03:43 86° 78° (ENE) 05:08:12 437.465
CUTE-I 24 Nov 05:03:10 05:05:18 12° 84° (E) 05:07:25 437.470
AO-7 24 Nov 05:04:47 05:12:56 60° 300° (WNW) 05:21:06 .
XW-2D 24 Nov 05:07:22 05:08:52 12° 87° (E) 05:10:21 145.860 - 145.880
CUBESAT XI-V 24 Nov 05:13:17 05:14:51 12° 275° (W) 05:16:28 437.345
BEESAT 3 24 Nov 05:15:26 05:17:56 16° 341° (NNW) 05:20:27 437.485
XW-2B 24 Nov 05:21:33 05:23:59 16° 90° (E) 05:26:24 145.730 - 145.750
NUDT-PHONESAT 24 Nov 05:24:07 05:25:34 12° 88° (E) 05:27:03 437.300
FO-29 24 Nov 05:33:30 05:38:21 19° 44° (NE) 05:43:24 435.910
STRAND 1 24 Nov 05:38:25 05:42:59 33° 62° (ENE) 05:47:33 437.568
SO-50 24 Nov 05:41:58 05:46:31 58° 234° (SW) 05:51:07 436.795
XW-2C 24 Nov 05:46:40 05:50:01 29° 95° (E) 05:53:23 145.795 - 145.815
RS-15 24 Nov 05:47:11 05:54:27 19° 265° (W) 06:01:34 29.354- 29.394
DOVE 4 24 Nov 05:51:25 05:56:37 63° 289° (WNW) 06:01:30 437.250
LilacSat-2 24 Nov 05:52:20 05:55:53 35° 97° (E) 05:59:27 437.200
HO-68 24 Nov 05:52:24 05:57:09 18° 85° (E) 06:01:52 435.675
AO-85 24 Nov 05:53:24 05:56:53 27° 330° (NNW) 06:00:34 145.980
XW-2F 24 Nov 05:54:27 05:57:54 32° 96° (E) 06:01:21 145.980 - 146.000
YUBILEINY 24 Nov 06:05:08 06:13:54 76° 283° (WNW) 06:22:48 435.215
KAITUO 1B 24 Nov 06:16:56 06:20:34 44° 99° (E) 06:24:12 145.475/437.950
ITAMSAT 1 24 Nov 06:29:09 06:31:15 12° 312° (NW) 06:33:21 435.822/435.867
BEESAT 2 24 Nov 06:35:01 06:37:09 14° 348° (NNW) 06:39:18 435.950
STARS 24 Nov 06:38:34 06:40:41 13° 273° (W) 06:42:48 437.465
XW-2D 24 Nov 06:39:43 06:43:32 75° 285° (WNW) 06:47:21 145.860 - 145.880
CUTE-I 24 Nov 06:40:56 06:46:20 72° 104° (ESE) 06:51:40 437.470
PCSat 24 Nov 06:42:21 06:47:06 29° 33° (NNE) 06:51:49 145.827
CUBEBUG 2 24 Nov 06:49:21 06:52:38 22° 92° (E) 06:55:52 437.445
XW-2B 24 Nov 06:54:44 06:58:28 54° 288° (WNW) 07:02:12 145.730 - 145.750
BEESAT 3 24 Nov 06:55:22 06:57:02 12° 5° (N) 06:58:41 437.485
NUDT-PHONESAT 24 Nov 06:56:10 06:59:53 71° 286° (WNW) 07:03:36 437.300
CUTE 1.7 + AOD 2 24 Nov 06:57:03 07:01:09 42° 98° (E) 07:05:13 437.475
AO-7 24 Nov 06:58:25 07:04:11 21° 323° (NW) 07:09:58 .
FO-29 24 Nov 07:15:01 07:21:54 62° 67° (ENE) 07:29:29 435.910
STRAND 1 24 Nov 07:17:08 07:22:03 44° 262° (W) 07:27:00 437.568
AAUSAT CUBESAT 2 24 Nov 07:19:16 07:22:35 22° 92° (E) 07:25:52 437.432
XW-2C 24 Nov 07:20:50 07:24:11 29° 293° (WNW) 07:27:31 145.795 - 145.815
SEEDS 24 Nov 07:21:28 07:25:36 47° 99° (E) 07:29:42 437.485
ZACube-1 24 Nov 07:23:24 07:26:02 16° 89° (E) 07:28:40 437.345
LilacSat-2 24 Nov 07:26:51 07:30:02 25° 295° (WNW) 07:33:13 437.200
XW-2F 24 Nov 07:28:43 07:31:56 26° 294° (WNW) 07:35:08 145.980 - 146.000
XW-2A 24 Nov 07:30:39 07:33:34 26° 96° (E) 07:36:29 145.665 - 145.685
DOVE 4 24 Nov 07:30:51 07:33:15 13° 310° (NW) 07:35:37 437.250
AO-85 24 Nov 07:36:19 07:38:41 14° 355° (N) 07:41:08 145.980
HO-68 24 Nov 07:38:49 07:46:04 79° 107° (ESE) 07:53:14 435.675
UWE-3 24 Nov 07:39:16 07:43:11 39° 98° (E) 07:47:05 435.000/436.395/437.385
KAITUO 1B 24 Nov 07:51:29 07:54:17 20° 297° (WNW) 07:57:06 145.475/437.950
YUBILEINY 24 Nov 08:05:55 08:12:29 23° 309° (NW) 08:19:07 435.215
AO-73 24 Nov 08:11:34 08:15:31 41° 98° (E) 08:19:28 145.935
BEESAT 2 24 Nov 08:14:21 08:16:29 14° 12° (NNE) 08:18:37 435.950
XW-2D 24 Nov 08:16:45 08:17:00 10° 305° (NW) 08:17:16 145.860 - 145.880
CUTE-I 24 Nov 08:21:44 08:25:54 23° 304° (WNW) 08:30:03 437.470
Oscar 11 24 Nov 08:24:24 08:28:29 39° 97° (E) 08:32:33 .
CUBEBUG 2 24 Nov 08:25:30 08:29:29 44° 291° (WNW) 08:33:26 437.445
PCSat 24 Nov 08:25:37 08:31:05 80° 234° (SW) 08:36:29 145.827
BEESAT 3 24 Nov 08:32:44 08:35:56 22° 28° (NNE) 08:39:05 437.485
CUTE 1.7 + AOD 2 24 Nov 08:33:15 08:36:48 26° 297° (WNW) 08:40:20 437.475
UNISAT 6 24 Nov 08:35:53 08:40:18 55° 70° (ENE) 08:44:38 437.425
PRISM 24 Nov 08:38:12 08:41:32 24° 62° (ENE) 08:44:53 437.425
TIGRISAT 24 Nov 08:39:21 08:43:46 54° 70° (ENE) 08:48:05 435.000
AO-7 24 Nov 08:52:46 08:53:51 10° 350° (N) 08:54:56 .
AAUSAT CUBESAT 2 24 Nov 08:54:14 08:58:15 45° 290° (WNW) 09:02:15 437.432
DELFI C3 24 Nov 08:55:48 08:58:44 19° 91° (E) 09:01:39 145.870
SEEDS 24 Nov 08:57:39 09:01:02 23° 298° (WNW) 09:04:23 437.485
ZACube-1 24 Nov 08:58:38 09:02:44 62° 288° (WNW) 09:06:51 437.345
FO-29 24 Nov 09:01:03 09:07:22 36° 269° (W) 09:14:17 435.910
XW-2A 24 Nov 09:03:24 09:06:13 25° 294° (WNW) 09:09:01 145.665 - 145.685
AIST 2D 24 Nov 09:03:59 09:05:16 12° 59° (ENE) 09:06:35 435.315
EO-88 24 Nov 09:13:22 09:15:22 14° 89° (E) 09:17:23 145.990 - 145.960
UWE-3 24 Nov 09:16:03 09:19:30 26° 296° (WNW) 09:22:56 435.000/436.395/437.385
AO-85 24 Nov 09:17:37 09:20:43 18° 19° (NNE) 09:23:58 145.980
Max Valier Satellite 24 Nov 09:21:42 09:24:43 23° 94° (E) 09:27:44 145.860
EO-79 24 Nov 09:23:58 09:25:05 11° 53° (NE) 09:26:11 145.935-145.965
NANOSAT C BR1 24 Nov 09:25:55 09:26:11 10° 52° (NE) 09:26:27 145.865
HO-68 24 Nov 09:27:11 09:33:11 30° 308° (NW) 09:39:09 435.675
POLYITAN 1 24 Nov 09:38:48 09:41:08 15° 56° (ENE) 09:43:26 437.675
AO-73 24 Nov 09:48:12 09:51:36 25° 296° (WNW) 09:54:59 145.935
BEESAT 2 24 Nov 09:51:43 09:55:23 31° 35° (NE) 09:59:01 435.950
